Time,TemperatureF,DewpointF,PressureIn,WindDirection,WindDirectionDegrees,WindSpeedMPH,WindSpeedGustMPH,Humidity,HourlyPrecipIn,Conditions,Clouds,dailyrainin,SoftwareType,DateUTC
2013-01-06 15:12:00,48.0,-99.9,-100.00,NNE,14,5.0,9.0,-999,0.00,,,-99.99,,2013-01-06 21:12:00,
2013-01-06 15:22:00,48.0,-99.9,-100.00,NNE,23,3.0,7.0,-999,0.00,,,-99.99,,2013-01-06 21:22:00,
2013-01-06 15:33:00,49.0,-99.9,-100.00,NNE,21,2.0,4.0,-999,0.00,,,-99.99,,2013-01-06 21:33:00,
2013-01-06 15:43:00,49.0,-99.9,-100.00,NNE,21,2.0,4.0,-999,0.00,,,-99.99,,2013-01-06 21:43:00,
2013-01-06 15:53:00,50.0,-99.9,-100.00,North,6,0.0,3.0,-999,0.00,,,-99.99,,2013-01-06 21:53:00,
2013-01-06 16:02:00,48.0,-99.9,-100.00,NNW,339,3.0,5.0,-999,0.00,,,-99.99,,2013-01-06 22:02:00,
2013-01-06 16:12:00,48.0,-99.9,-100.00,NNW,339,3.0,5.0,-999,0.00,,,-99.99,,2013-01-06 22:12:00,
2013-01-06 16:23:00,49.0,-99.9,-100.00,North,352,1.0,5.0,-999,0.00,,,-99.99,,2013-01-06 22:23:00,
2013-01-06 16:33:00,48.0,-99.9,-100.00,NNE,27,2.0,5.0,-999,0.00,,,-99.99,,2013-01-06 22:33:00,
2013-01-06 16:43:00,48.0,-99.9,-100.00,NNE,27,2.0,5.0,-999,0.00,,,-99.99,,2013-01-06 22:43:00,
2013-01-06 16:53:00,47.0,-99.9,-100.00,NNE,20,2.0,3.0,-999,0.00,,,-99.99,,2013-01-06 22:53:00,
2013-01-06 17:02:00,46.0,-99.9,-100.00,North,10,1.0,2.0,-999,0.00,,,-99.99,,2013-01-06 23:02:00,
2013-01-06 17:13:00,46.0,-99.9,-100.00,North,10,1.0,2.0,-999,0.00,,,-99.99,,2013-01-06 23:13:00,
2013-01-06 17:22:00,45.0,-99.9,-100.00,North,0,0.0,0.0,-999,0.00,,,-99.99,,2013-01-06 23:22:00,
2013-01-06 17:33:00,43.0,-99.9,-100.00,North,0,0.0,0.0,-999,0.00,,,-99.99,,2013-01-06 23:33:00,
2013-01-06 17:43:00,43.0,-99.9,-100.00,North,0,0.0,0.0,-999,0.00,,,-99.99,,2013-01-06 23:43:00,
2013-01-06 17:53:00,40.0,-99.9,-100.00,North,0,0.0,0.0,-999,0.00,,,-99.99,,2013-01-06 23:53:00,
2013-01-06 18:03:00,39.0,-99.9,-100.00,North,0,0.0,0.0,-999,0.00,,,-99.99,,2013-01-07 00:03:00,
2013-01-06 18:12:00,39.0,-99.9,-100.00,North,0,0.0,0.0,-999,0.00,,,-99.99,,2013-01-07 00:12:00,
2013-01-06 18:23:00,37.0,-99.9,-100.00,North,0,0.0,0.0,-999,0.00,,,-99.99,,2013-01-07 00:23:00,
2013-01-06 18:33:00,37.0,-99.9,-100.00,North,0,0.0,0.0,-999,0.00,,,-99.99,,2013-01-07 00:33:00,
2013-01-06 18:43:00,37.0,-99.9,-100.00,North,0,0.0,0.0,-999,0.00,,,-99.99,,2013-01-07 00:43:00,
2013-01-06 18:53:00,36.0,-99.9,-100.00,North,0,0.0,0.0,-999,0.00,,,-99.99,,2013-01-07 00:53:00,
2013-01-06 19:03:00,33.0,-99.9,-100.00,North,0,0.0,0.0,-999,0.00,,,-99.99,,2013-01-07 01:03:00,
2013-01-06 19:12:00,34.0,-99.9,-100.00,North,0,0.0,0.0,-999,0.00,,,-99.99,,2013-01-07 01:12:00,
2013-01-06 19:23:00,34.0,-99.9,-100.00,North,0,0.0,0.0,-999,0.00,,,-99.99,,2013-01-07 01:23:00,
2013-01-06 19:32:00,35.0,-99.9,-100.00,North,0,0.0,0.0,-999,0.00,,,-99.99,,2013-01-07 01:32:00,
2013-01-06 19:43:00,35.0,-99.9,-100.00,North,0,0.0,0.0,-999,0.00,,,-99.99,,2013-01-07 01:43:00,
2013-01-06 19:53:00,31.0,-99.9,-100.00,North,0,0.0,0.0,-999,0.00,,,-99.99,,2013-01-07 01:53:00,
2013-01-06 20:02:00,31.0,-99.9,-100.00,North,0,0.0,0.0,-999,0.00,,,-99.99,,2013-01-07 02:02:00,
2013-01-06 20:12:00,31.0,-99.9,-100.00,North,0,0.0,0.0,-999,0.00,,,-99.99,,2013-01-07 02:12:00,
2013-01-06 20:23:00,31.0,-99.9,-100.00,North,0,0.0,0.0,-999,0.00,,,-99.99,,2013-01-07 02:23:00,
2013-01-06 20:33:00,30.0,-99.9,-100.00,North,0,0.0,0.0,-999,0.00,,,-99.99,,2013-01-07 02:33:00,
2013-01-06 20:43:00,30.0,-99.9,-100.00,North,0,0.0,0.0,-999,0.00,,,-99.99,,2013-01-07 02:43:00,
2013-01-06 20:53:00,28.0,-99.9,-100.00,North,0,0.0,0.0,-999,0.00,,,-99.99,,2013-01-07 02:53:00,
2013-01-06 21:03:00,29.0,-99.9,-100.00,North,0,0.0,0.0,-999,0.00,,,-99.99,,2013-01-07 03:03:00,
2013-01-06 21:12:00,29.0,-99.9,-100.00,North,0,0.0,0.0,-999,0.00,,,-99.99,,2013-01-07 03:12:00,
2013-01-06 21:23:00,26.0,-99.9,-100.00,North,0,0.0,0.0,-999,0.00,,,-99.99,,2013-01-07 03:23:00,
2013-01-06 21:33:00,28.0,-99.9,-100.00,North,0,0.0,0.0,-999,0.00,,,-99.99,,2013-01-07 03:33:00,
2013-01-06 21:43:00,28.0,-99.9,-100.00,North,0,0.0,0.0,-999,0.00,,,-99.99,,2013-01-07 03:43:00,
2013-01-06 21:53:00,27.0,-99.9,-100.00,North,0,0.0,0.0,-999,0.00,,,-99.99,,2013-01-07 03:53:00,
2013-01-06 22:02:00,28.0,-99.9,-100.00,North,0,0.0,0.0,-999,0.00,,,-99.99,,2013-01-07 04:02:00,
2013-01-06 22:13:00,28.0,-99.9,-100.00,North,0,0.0,0.0,-999,0.00,,,-99.99,,2013-01-07 04:13:00,
2013-01-06 22:22:00,27.0,-99.9,-100.00,North,0,0.0,0.0,-999,0.00,,,-99.99,,2013-01-07 04:22:00,
2013-01-06 22:33:00,25.0,-99.9,-100.00,North,0,0.0,0.0,-999,0.00,,,-99.99,,2013-01-07 04:33:00,
2013-01-06 22:43:00,25.0,-99.9,-100.00,North,0,0.0,0.0,-999,0.00,,,-99.99,,2013-01-07 04:43:00,
2013-01-06 22:53:00,25.0,-99.9,-100.00,North,0,0.0,0.0,-999,0.00,,,-99.99,,2013-01-07 04:53:00,
2013-01-06 23:03:00,24.0,-99.9,-100.00,North,0,0.0,0.0,-999,0.00,,,-99.99,,2013-01-07 05:03:00,
2013-01-06 23:12:00,24.0,-99.9,-100.00,North,0,0.0,0.0,-999,0.00,,,-99.99,,2013-01-07 05:12:00,
2013-01-06 23:23:00,24.0,-99.9,-100.00,North,0,0.0,0.0,-999,0.00,,,-99.99,,2013-01-07 05:23:00,
2013-01-06 23:33:00,24.0,-99.9,-100.00,North,0,0.0,0.0,-999,0.00,,,-99.99,,2013-01-07 05:33:00,
2013-01-06 23:43:00,24.0,-99.9,-100.00,North,0,0.0,0.0,-999,0.00,,,-99.99,,2013-01-07 05:43:00,
2013-01-06 23:53:00,26.0,-99.9,-100.00,North,0,0.0,0.0,-999,0.00,,,-99.99,,2013-01-07 05:53:00,